Zurück zum Katalog

COSMOS 566

AktivMilitärLEO
NORAD 6677·PAYLOAD·🇷🇺 Russia

Gestartet Jun 8, 1973 von Plesetsk Cosmodrome

Loading…

Nächste Überflüge (nächste 24 Stunden)

TLE

AktuellSource: Space-Track

Epoche: Sep 14, 2026, 21:11 UTC

1 06677U 73037C   26257.88324848 -.00000010  00000-0  39131-4 0  9996
2 06677  74.0163 114.7496 0031745 338.7008  49.7656 12.51705744433698

Verfolge COSMOS 566 in Echtzeit mit AllMySat

Download on the App Store